GW6984 Weather Reports


time (UTC)temp
F
wind
direction
speed
knots
gust
knots
rain 1hr
in
rain 24hr
in
rain mn
in
humidity
%
barometer
mb
20260507060529 54 34 2.6 3.5 0.00 0.23 0.23 94 1010.9
20260507060025 54 13 0.0 0.9 0.00 0.23 0.23 94 1011.4
20260507055520 54 16 0.9 0.9 0.00 0.23 0.23 94 1011.0
20260507055016 54 17 0.9 1.7 0.00 0.23 0.23 94 1011.0
20260507054512 54 46 0.9 0.9 0.00 0.23 0.23 94 1010.7
20260507054009 54 56 0.0 0.9 0.00 0.23 0.23 94 1010.7
20260507053507 54 30 0.9 0.9 0.00 0.23 0.23 94 1011.0
20260507053006 54 20 0.9 2.6 0.00 0.23 0.23 93 1010.9
20260507052503 54 22 1.7 2.6 0.00 0.23 0.23 93 1011.0
20260507051959 54 354 0.9 0.9 0.07 0.23 0.23 93 1011.1
20260507051457 54 358 1.7 1.7 0.07 0.23 0.23 93 1011.0
20260507050954 55 348 1.7 2.6 0.00 0.22 0.22 92 1011.1
20260507050450 55 31 2.6 3.5 0.12 0.22 0.22 92 1010.9
20260507045947 55 13 2.6 2.6 0.90 0.22 0.22 92 1011.2
20260507045444 55 17 2.6 5.2 1.09 0.20 0.20 90 1010.9
20260507044941 56 153 1.7 3.5 0.31 0.05 0.05 88 1011.2
20260507044438 57 357 5.2 6.1 0.07 0.01 0.01 85 1010.8
20260507043934 57 40 0.9 1.7 0.00 0.00 0.00 84 1010.3
20260507043430 58 22 1.7 2.6 0.00 0.00 0.00 83 1010.8
20260507042926 58 51 1.7 3.5 0.00 0.00 0.00 82 1010.7
20260507042424 58 326 3.5 5.2 0.00 0.00 0.00 81 1010.7
20260507041919 58 53 6.1 7.8 0.00 0.00 0.00 80 1010.6
20260507041416 59 354 6.1 8.7 0.00 0.00 0.00 77 1010.7
20260507040914 59 347 2.6 7.8 0.00 0.00 0.00 79 1010.6
20260507040409 60 356 2.6 3.5 0.00 0.00 0.00 82 1010.2
20260507035905 60 339 1.7 3.5 0.00 0.15 0.15 82 1010.2
20260507035401 60 26 0.9 1.7 0.00 0.15 0.15 82 1010.2
20260507034859 60 14 0.0 1.7 0.00 0.15 0.15 82 1010.1
20260507034355 60 45 1.7 3.5 0.00 0.15 0.15 82 1010.1
20260507033853 61 294 1.7 6.1 0.00 0.15 0.15 81 1010.3
20260507033351 61 19 3.5 3.5 0.00 0.15 0.15 81 1010.3
20260507032848 61 311 1.7 6.1 0.00 0.15 0.15 80 1010.4
20260507032345 61 34 2.6 3.5 0.00 0.15 0.15 84 1010.0
20260507031841 61 12 0.9 2.6 0.00 0.15 0.15 85 1010.2
20260507031338 62 0 1.7 7.8 0.00 0.15 0.15 84 1009.9
20260507030834 62 29 1.7 2.6 0.00 0.15 0.15 84 1009.9
20260507030332 62 36 2.6 3.5 0.00 0.15 0.15 84 1009.7
20260507025828 62 355 2.6 6.1 0.00 0.15 0.15 84 1009.8
20260507025326 62 313 3.5 5.2 0.00 0.15 0.15 83 1009.6
20260507024824 63 358 2.6 6.1 0.00 0.15 0.15 83 1009.7
20260507024321 63 333 3.5 5.2 0.00 0.15 0.15 84 1009.7
20260507023816 63 352 2.6 3.5 0.00 0.15 0.15 84 1009.6
20260507023313 64 22 0.9 2.6 0.00 0.15 0.15 85 1009.4
20260507022810 64 44 1.7 5.2 0.00 0.15 0.15 85 1009.5
20260507022307 64 22 0.9 2.6 0.00 0.15 0.15 85 1009.5
20260507021803 64 335 4.3 5.2 0.00 0.15 0.15 85 1009.6
20260507021259 64 347 2.6 3.5 0.00 0.15 0.15 88 1009.8
20260507020757 64 36 0.9 2.6 0.00 0.15 0.15 88 1009.2
20260507020253 64 352 0.9 2.6 0.00 0.15 0.15 87 1009.6
20260507015751 65 53 0.9 2.6 0.00 0.15 0.15 86 1009.5
20260507015248 65 20 0.9 2.6 0.00 0.15 0.15 86 1009.5
20260507014745 65 0 1.7 1.7 0.00 0.15 0.15 86 1009.9
20260507014241 65 31 0.0 1.7 0.00 0.15 0.15 86 1009.7
20260507013738 65 19 0.0 0.9 0.00 0.15 0.15 85 1009.7
20260507013235 65 356 0.9 1.7 0.00 0.15 0.15 84 1009.6
20260507012732 65 19 0.9 0.9 0.00 0.15 0.15 84 1009.6
20260507012228 65 25 0.9 1.7 0.00 0.15 0.15 83 1010.0
20260507011726 65 291 0.9 2.6 0.00 0.15 0.15 82 1009.8
20260507011222 66 22 1.7 7.0 0.00 0.15 0.15 82 1009.5
20260507010721 66 247 1.7 1.7 0.00 0.15 0.15 82 1009.6
20260507010218 66 188 0.9 0.9 0.00 0.15 0.15 82 1009.3
20260507005715 66 211 1.7 2.6 0.00 0.15 0.15 81 1009.3
20260507005211 66 190 0.0 1.7 0.00 0.15 0.15 81 1009.3
20260507004708 66 210 2.6 3.5 0.00 0.15 0.15 81 1009.2
20260507004206 66 207 2.6 2.6 0.00 0.15 0.15 81 1009.0
20260507003702 66 186 0.9 2.6 0.00 0.15 0.15 81 1009.2
20260507003157 66 206 3.5 3.5 0.00 0.15 0.15 81 1008.9
20260507002653 66 167 0.0 0.9 0.00 0.15 0.15 82 1009.0
20260507002149 67 169 0.9 0.9 0.00 0.15 0.15 81 1008.7
20260507001646 67 208 2.6 2.6 0.00 0.15 0.15 80 1008.8
20260507001144 67 197 2.6 3.5 0.00 0.15 0.15 80 1008.9
20260507000640 67 200 1.7 1.7 0.00 0.15 0.15 80 1008.7
20260507000135 67 195 1.7 1.7 0.00 0.15 0.15 80 1008.6
20260506235633 67 166 0.9 0.9 0.00 0.15 0.15 79 1008.6
20260506235133 67 168 0.0 0.9 0.00 0.15 0.15 79 1008.4
20260506234631 67 174 0.0 0.0 0.00 0.15 0.15 79 1008.6
20260506234128 68 171 0.0 0.0 0.00 0.15 0.15 79 1008.4
20260506233625 68 169 0.0 0.0 0.00 0.15 0.15 78 1008.3
20260506233122 68 168 0.0 0.0 0.00 0.15 0.15 78 1008.4
20260506232618 68 167 0.9 0.9 0.00 0.15 0.15 77 1008.1
20260506232113 68 189 0.9 1.7 0.00 0.15 0.15 76 1008.2
20260506231611 68 198 0.9 2.6 0.00 0.15 0.15 76 1008.3
20260506231109 68 176 0.0 0.9 0.00 0.15 0.15 77 1008.2
20260506230605 68 176 0.9 1.7 0.00 0.15 0.15 76 1008.2
20260506225559 68 173 0.0 0.0 0.00 0.15 0.15 77 1008.4
20260506225055 68 173 0.0 0.9 0.00 0.15 0.15 77 1008.2
20260506224552 68 192 0.9 1.7 0.00 0.15 0.15 76 1008.5
20260506224049 68 202 0.9 2.6 0.00 0.15 0.15 76 1008.4
20260506223545 68 197 1.7 2.6 0.00 0.15 0.15 76 1008.5
20260506223042 68 210 0.0 0.0 0.00 0.15 0.15 76 1008.5
20260506222538 69 210 0.0 0.0 0.00 0.15 0.15 76 1008.1
20260506222035 69 209 0.9 2.6 0.00 0.15 0.15 75 1008.3
20260506221532 69 176 0.0 1.7 0.00 0.15 0.15 75 1008.5
20260506221030 69 228 2.6 2.6 0.00 0.15 0.15 74 1008.2
20260506220526 69 172 0.9 1.7 0.00 0.15 0.15 75 1008.1
20260506220022 69 170 0.0 0.9 0.00 0.15 0.15 75 1008.2
20260506215519 69 203 2.6 3.5 0.00 0.15 0.15 75 1008.3
20260506215014 69 198 1.7 2.6 0.00 0.15 0.15 74 1008.1
20260506214512 69 221 3.5 5.2 0.00 0.15 0.15 73 1008.2
20260506214009 69 201 2.6 3.5 0.00 0.15 0.15 73 1007.9
20260506213507 69 193 5.2 6.1 0.00 0.15 0.15 73 1007.9
20260506213004 69 190 0.9 2.6 0.00 0.15 0.15 73 1008.2
20260506212500 69 186 2.6 5.2 0.00 0.15 0.15 74 1007.9
20260506211954 69 197 1.7 2.6 0.00 0.15 0.15 73 1008.1
20260506211451 69 192 1.7 2.6 0.00 0.15 0.15 74 1007.9
20260506210948 69 194 1.7 3.5 0.00 0.15 0.15 75 1007.8
20260506210444 69 201 2.6 2.6 0.00 0.15 0.15 74 1007.8
20260506205942 69 204 1.7 1.7 0.00 0.15 0.15 75 1007.8
20260506205438 69 197 1.7 1.7 0.00 0.15 0.15 74 1007.7
20260506204934 69 176 2.6 2.6 0.00 0.15 0.15 73 1007.6
20260506204432 69 206 2.6 3.5 0.00 0.15 0.15 73 1007.9
20260506203929 69 197 0.9 2.6 0.00 0.15 0.15 73 1007.9
20260506203426 69 192 1.7 5.2 0.00 0.15 0.15 73 1007.9
20260506202923 69 203 4.3 5.2 0.00 0.15 0.15 71 1007.9
20260506202420 70 212 3.5 5.2 0.00 0.15 0.15 71 1007.9
20260506201917 70 225 3.5 6.1 0.00 0.15 0.15 70 1007.9
20260506201414 70 205 1.7 2.6 0.00 0.15 0.15 71 1007.7
20260506200911 70 188 2.6 5.2 0.00 0.15 0.15 71 1007.7
20260506200407 69 213 7.8 8.7 0.00 0.15 0.15 71 1007.7
20260506195903 69 274 4.3 9.6 0.00 0.15 0.15 72 1007.8
20260506195401 69 211 5.2 8.7 0.00 0.15 0.15 72 1007.8
20260506194857 69 196 5.2 7.8 0.00 0.15 0.15 71 1007.7
20260506194354 69 214 5.2 7.8 0.00 0.15 0.15 72 1007.9
20260506193852 70 207 4.3 11.3 0.00 0.15 0.15 71 1007.7
20260506193348 69 350 1.7 5.2 0.00 0.15 0.15 73 1007.8
20260506192844 69 224 7.0 9.6 0.00 0.15 0.15 73 1008.0
20260506192341 69 223 5.2 11.3 0.00 0.15 0.15 71 1008.1
20260506191838 69 212 4.3 7.8 0.00 0.15 0.15 74 1007.9
20260506191335 68 213 3.5 5.2 0.00 0.15 0.15 74 1008.0
20260506190832 69 194 6.1 7.0 0.00 0.15 0.15 73 1008.1
20260506190328 68 196 2.6 5.2 0.00 0.15 0.15 75 1008.2
20260506185825 67 249 4.3 8.7 0.00 0.15 0.15 77 1008.5
20260506185322 67 225 7.0 13.0 0.00 0.15 0.15 77 1008.4
20260506184819 67 226 2.6 8.7 0.00 0.15 0.15 77 1008.5
20260506184316 67 208 1.7 6.1 0.00 0.15 0.15 78 1008.4
20260506183814 66 220 4.3 7.0 0.00 0.15 0.15 78 1008.6
20260506183309 66 230 5.2 7.0 0.00 0.15 0.15 80 1008.7
20260506182806 66 190 3.5 7.8 0.00 0.15 0.15 79 1008.5
20260506182306 66 220 7.0 8.7 0.00 0.15 0.15 79 1008.3
20260506181801 66 220 4.3 7.0 0.00 0.15 0.15 81 1008.5
20260506181259 65 269 2.6 6.1 0.00 0.15 0.15 82 1008.7
20260506180755 65 209 10.4 13.0 0.00 0.15 0.15 81 1008.7
20260506180251 65 213 7.8 8.7 0.00 0.15 0.15 82 1008.9
20260506175748 65 199 4.3 8.7 0.00 0.15 0.15 82 1008.7
20260506175245 64 216 3.5 7.8 0.00 0.15 0.15 84 1008.7
20260506174742 64 197 3.5 7.8 0.00 0.15 0.15 85 1008.7
20260506174239 64 214 3.5 5.2 0.00 0.15 0.15 85 1008.8
20260506173737 64 252 3.5 8.7 0.00 0.15 0.15 85 1008.7
20260506173233 63 212 4.3 7.0 0.00 0.15 0.15 86 1008.7
20260506172730 63 177 7.8 9.6 0.00 0.15 0.15 87 1008.7
20260506172227 62 294 5.2 7.8 0.00 0.15 0.15 88 1008.9
20260506171725 62 214 5.2 7.0 0.00 0.15 0.15 88 1008.9
20260506171222 62 212 7.8 8.7 0.00 0.15 0.15 89 1008.9
20260506170719 62 247 3.5 7.0 0.00 0.15 0.15 89 1008.7
20260506170216 62 213 5.2 9.6 0.00 0.15 0.15 89 1008.9
20260506165714 62 203 3.5 7.0 0.00 0.15 0.15 89 1009.2
20260506165211 62 207 5.2 6.1 0.00 0.15 0.15 89 1009.0
20260506164708 62 227 4.3 11.3 0.00 0.15 0.15 89 1009.3
20260506164205 61 215 5.2 8.7 0.00 0.15 0.15 89 1009.2
20260506163701 61 215 7.0 7.8 0.00 0.15 0.15 90 1009.0
20260506163156 61 188 5.2 7.0 0.00 0.15 0.15 91 1008.8
20260506162653 61 211 6.1 11.3 0.00 0.15 0.15 90 1009.2
20260506162150 61 193 6.1 12.2 0.00 0.15 0.15 91 1009.5
20260506161647 61 180 6.1 8.7 0.00 0.15 0.15 91 1009.6
20260506161144 61 209 3.5 7.0 0.00 0.15 0.15 92 1009.5
20260506160642 61 170 7.8 8.7 0.00 0.15 0.15 92 1009.4
20260506160139 61 188 2.6 6.1 0.00 0.15 0.15 92 1009.4
20260506155637 61 179 6.1 8.7 0.00 0.15 0.15 92 1009.6
20260506155133 61 199 4.3 7.8 0.05 0.15 0.15 92 1009.4
20260506153230 60 174 5.2 7.8 0.00 0.14 0.14 92 1009.6
20260506152727 60 167 5.2 8.7 0.00 0.14 0.14 92 1009.6
20260506152224 60 175 2.6 6.1 0.00 0.14 0.14 92 1009.8
20260506151724 60 204 5.2 8.7 0.07 0.14 0.14 92 1010.0
20260506151219 60 131 7.0 7.0 0.07 0.14 0.14 92 1010.0
20260506150716 61 179 3.5 5.2 0.12 0.13 0.13 92 1010.2
20260506150213 61 189 5.2 8.7 0.12 0.13 0.13 91 1010.2
20260506145710 61 215 3.5 5.2 0.00 0.11 0.11 91 1010.1
20260506145206 61 165 3.5 7.8 0.07 0.11 0.11 91 1010.2
20260506144704 61 207 5.2 9.6 0.07 0.11 0.11 90 1010.1
20260506144201 61 192 4.3 6.1 0.05 0.10 0.10 91 1010.2
20260506143658 61 202 7.0 11.3 0.12 0.10 0.10 90 1010.1
20260506143156 61 218 3.5 6.1 0.07 0.09 0.09 91 1009.9
20260506142655 61 158 3.5 6.1 0.07 0.09 0.09 90 1009.9
20260506142152 61 176 4.3 9.6 0.00 0.08 0.08 90 1009.9
20260506141649 61 190 4.3 6.1 0.05 0.08 0.08 91 1010.0
20260506141148 61 176 3.5 7.0 0.12 0.08 0.08 90 1009.9
20260506140645 61 179 2.6 3.5 0.07 0.07 0.07 89 1010.3
20260506140142 61 185 5.2 7.8 0.05 0.06 0.06 89 1010.3
20260506135639 61 202 5.2 7.8 0.12 0.06 0.06 88 1010.6
20260506135135 61 199 4.3 7.8 0.12 0.05 0.05 88 1010.6
20260506134632 62 200 3.5 3.5 0.12 0.04 0.04 87 1010.6
20260506134127 62 181 2.6 6.1 0.12 0.03 0.03 85 1010.4
20260506133625 62 206 4.3 7.8 0.05 0.02 0.02 85 1010.4
20260506133122 62 205 3.5 7.0 0.00 0.01 0.01 84 1010.5
20260506132619 62 199 3.5 5.2 0.00 0.01 0.01 83 1010.4
20260506132116 62 177 3.5 5.2 0.07 0.01 0.01 83 1010.4
20260506131613 63 201 4.3 7.8 0.07 0.01 0.01 80 1010.1
20260506131109 63 234 5.2 7.8 0.00 0.00 0.00 79 1010.1
20260506130607 64 139 2.6 5.2 0.00 0.00 0.00 79 1009.8
20260506130104 64 175 3.5 7.0 0.00 0.00 0.00 78 1010.0
20260506125602 64 183 5.2 6.1 0.00 0.00 0.00 77 1009.8
20260506125100 64 195 3.5 5.2 0.00 0.00 0.00 77 1010.1
20260506124557 64 203 3.5 3.5 0.00 0.00 0.00 78 1009.9
20260506124055 64 196 5.2 6.1 0.00 0.00 0.00 76 1010.1
20260506123552 63 206 3.5 6.1 0.00 0.00 0.00 78 1010.3
20260506123051 63 206 2.6 3.5 0.00 0.00 0.00 77 1010.5
20260506122547 64 199 2.6 7.0 0.00 0.00 0.00 76 1010.4
20260506122045 64 206 3.5 6.1 0.00 0.00 0.00 75 1010.7
20260506121542 64 246 5.2 7.0 0.00 0.00 0.00 74 1010.4
20260506121038 64 220 3.5 9.6 0.00 0.00 0.00 72 1010.5
20260506120536 65 216 5.2 6.1 0.00 0.00 0.00 71 1010.7
20260506120034 65 190 5.2 6.1 0.00 0.00 0.00 71 1010.4
20260506115531 65 218 2.6 5.2 0.00 0.00 0.00 71 1010.4
20260506115030 65 230 3.5 8.7 0.00 0.00 0.00 71 1010.3
20260506114527 65 217 4.3 7.8 0.00 0.00 0.00 71 1010.0
20260506114025 65 178 4.3 11.3 0.00 0.00 0.00 70 1010.0
20260506113523 65 201 2.6 7.8 0.00 0.00 0.00 70 1010.1
20260506113020 65 170 3.5 5.2 0.00 0.00 0.00 71 1010.0
20260506112516 65 220 5.2 6.1 0.00 0.00 0.00 71 1009.8
20260506112014 65 190 3.5 7.0 0.00 0.00 0.00 71 1009.8
20260506111512 65 179 7.0 8.7 0.00 0.00 0.00 71 1009.8
20260506111008 65 175 2.6 6.1 0.00 0.00 0.00 72 1009.9
20260506110507 64 201 6.1 7.0 0.00 0.00 0.00 72 1009.7
20260506110003 64 184 4.3 7.0 0.00 0.00 0.00 72 1009.7
20260506105459 65 192 2.6 6.1 0.00 0.00 0.00 71 1009.8
20260506104956 65 194 5.2 6.1 0.00 0.00 0.00 71 1009.6
20260506104454 64 219 5.2 8.7 0.00 0.00 0.00 72 1009.6
20260506103953 64 202 5.2 6.1 0.00 0.00 0.00 72 1009.8
20260506103449 64 172 6.1 7.8 0.00 0.00 0.00 73 1009.5
20260506102946 64 181 3.5 9.6 0.00 0.00 0.00 73 1009.5
20260506102444 64 172 3.5 6.1 0.00 0.00 0.00 73 1009.6
20260506101941 64 181 5.2 7.8 0.00 0.00 0.00 73 1009.6
20260506101438 64 177 3.5 3.5 0.00 0.00 0.00 73 1009.5
20260506100935 64 185 2.6 6.1 0.00 0.00 0.00 72 1009.6
20260506100433 64 187 3.5 6.1 0.00 0.00 0.00 72 1009.7
20260506095931 64 168 2.6 6.1 0.00 0.00 0.00 72 1009.6
20260506095429 64 193 3.5 7.8 0.00 0.00 0.00 71 1009.6
20260506094925 64 185 5.2 7.0 0.00 0.00 0.00 72 1009.4
20260506094424 64 180 3.5 6.1 0.00 0.00 0.00 71 1009.4
20260506093921 64 190 6.1 8.7 0.00 0.00 0.00 71 1009.4
20260506093419 64 198 7.8 8.7 0.00 0.00 0.00 70 1009.4
20260506092916 64 169 4.3 7.0 0.00 0.00 0.00 70 1009.7
20260506092414 65 170 3.5 6.1 0.00 0.00 0.00 70 1009.6
20260506091910 65 186 2.6 6.1 0.00 0.00 0.00 69 1009.5
20260506091409 65 207 3.5 7.8 0.00 0.00 0.00 69 1009.4
20260506090905 65 179 5.2 6.1 0.00 0.00 0.00 68 1009.5
20260506090403 65 180 6.1 8.7 0.00 0.00 0.00 68 1009.6
20260506085900 65 202 3.5 3.5 0.00 0.00 0.00 69 1009.9
20260506085356 66 182 5.2 7.8 0.00 0.00 0.00 68 1009.6
20260506084852 66 173 1.7 5.2 0.00 0.00 0.00 67 1009.8
20260506084349 66 178 3.5 5.2 0.00 0.00 0.00 67 1009.8
20260506083846 66 203 3.5 7.8 0.00 0.00 0.00 66 1009.8
20260506083344 66 175 4.3 5.2 0.00 0.00 0.00 67 1009.8
20260506082841 66 190 4.3 6.1 0.00 0.00 0.00 67 1009.8
20260506082337 65 166 1.7 9.6 0.00 0.00 0.00 67 1009.6
20260506081833 64 182 2.6 3.5 0.00 0.00 0.00 69 1009.4
20260506081332 65 175 1.7 2.6 0.00 0.00 0.00 70 1009.6
20260506080829 66 163 0.9 3.5 0.00 0.00 0.00 67 1009.5
20260506080325 66 166 1.7 3.5 0.00 0.00 0.00 66 1009.4
20260506073310 68 202 7.0 7.8 0.00 0.00 0.00 59 1009.7
20260506072806 68 150 5.2 8.7 0.00 0.00 0.00 59 1009.7
20260506072305 68 178 4.3 7.0 0.00 0.00 0.00 58 1009.9
20260506071801 69 214 7.0 12.2 0.00 0.00 0.00 58 1009.9
20260506071259 69 207 4.3 11.3 0.00 0.00 0.00 57 1010.0
20260506070756 69 233 5.2 8.7 0.00 0.00 0.00 58 1009.8
20260506070253 69 140 3.5 3.5 0.00 0.00 0.00 58 1009.9
20260506062230 70 185 7.8 13.9 0.00 0.00 0.00 53 1010.2
20260506061726 70 215 6.1 12.2 0.00 0.00 0.00 53 1010.2
20260506061224 70 218 5.2 12.2 0.00 0.00 0.00 53 1010.2